GW0807 Weather Reports


time (UTC)temp
C
wind
direction
speed
KPH
gust
KPH
rain 1hr
cm
rain 24hr
cm
rain mn
cm
humidity
%
barometer
mb
20260504130501 15 196 16.1 20.9 0.00 0.00 0.00 61 1014.7
20260504110500 12 181 19.3 22.5 0.00 0.00 0.00 68 1015.7
20260504100459 12 195 17.7 24.1 0.00 0.00 0.00 72 1015.6
20260504081500 12 184 22.5 27.4 0.00 0.00 0.00 70 1015.5
20260504081000 12 164 20.9 30.6 0.00 0.00 0.00 70 1015.6
20260504080504 12 171 27.4 30.6 0.00 0.00 0.00 68 1015.7
20260504050500 12 158 12.9 22.5 0.00 0.00 0.00 73 1015.8
20260504050004 12 154 17.7 22.5 0.00 0.00 0.00 73 1016.0
20260504045505 12 176 22.5 29.0 0.00 0.00 0.00 73 1016.0
20260504045004 12 178 24.1 29.0 0.00 0.00 0.00 72 1016.1
20260504044505 11 176 24.1 25.7 0.00 0.00 0.00 71 1016.0
20260504044005 11 173 20.9 27.4 0.00 0.00 0.00 70 1016.0
20260504043005 12 162 19.3 24.1 0.00 0.00 0.00 68 1016.1
20260504042504 11 183 22.5 24.1 0.00 0.00 0.00 67 1016.0
20260504042005 11 186 22.5 24.1 0.00 0.00 0.00 67 1016.0
20260504041504 12 178 20.9 27.4 0.00 0.00 0.00 67 1015.9
20260504041005 12 179 19.3 20.9 0.00 0.00 0.00 67 1016.0
20260504040504 12 171 17.7 22.5 0.00 0.00 0.00 68 1015.7
20260504040004 12 184 19.3 22.5 0.00 0.00 0.00 69 1015.6
20260504035505 12 176 19.3 22.5 0.00 0.00 0.00 69 1015.6
20260504035004 12 180 19.3 22.5 0.00 0.00 0.00 70 1015.7
20260504034504 11 184 17.7 20.9 0.00 0.00 0.00 71 1015.6
20260504033504 11 182 16.1 17.7 0.00 0.00 0.00 73 1015.4
20260504033005 11 184 16.1 19.3 0.00 0.00 0.00 73 1015.5
20260504032504 11 181 11.3 17.7 0.00 0.00 0.00 72 1015.4
20260504032004 11 171 9.7 11.3 0.00 0.00 0.00 72 1015.4
20260504031505 11 157 9.7 11.3 0.00 0.00 0.00 72 1015.4
20260504031005 11 167 6.4 9.7 0.00 0.00 0.00 72 1015.4
20260504030504 11 151 6.4 11.3 0.00 0.00 0.00 71 1015.4
20260504030005 11 154 8.0 11.3 0.00 0.00 0.00 71 1015.4
20260504025504 11 158 3.2 8.0 0.00 0.00 0.00 70 1015.4
20260504025005 11 153 4.8 9.7 0.00 0.00 0.00 69 1015.3
20260504024504 11 164 3.2 11.3 0.00 0.00 0.00 68 1015.3
20260504024005 11 140 4.8 11.3 0.00 0.00 0.00 67 1015.4
20260504023504 11 153 8.0 11.3 0.00 0.00 0.00 67 1015.4
20260504023004 11 156 6.4 11.3 0.00 0.00 0.00 67 1015.4
20260504022504 11 142 4.8 8.0 0.00 0.00 0.00 66 1015.4
20260504022004 11 136 3.2 6.4 0.00 0.00 0.00 65 1015.4
20260504021505 11 125 1.6 8.0 0.00 0.00 0.00 66 1015.3
20260504021004 11 140 3.2 11.3 0.00 0.00 0.00 66 1015.3
20260504020005 11 146 1.6 6.4 0.00 0.00 0.00 66 1015.2
20260504015504 11 149 1.6 6.4 0.00 0.00 0.00 65 1015.3
20260504015005 11 159 3.2 8.0 0.00 0.00 0.00 63 1015.3
20260504014504 12 154 4.8 9.7 0.00 0.00 0.00 63 1015.4
20260504014004 12 163 3.2 9.7 0.00 0.00 0.00 65 1015.2
20260504013504 12 156 6.4 12.9 0.00 0.00 0.00 62 1015.2
20260504013004 12 146 6.4 12.9 0.00 0.00 0.00 63 1015.2
20260504012504 12 177 11.3 14.5 0.00 0.00 0.00 61 1015.0
20260504011504 12 190 9.7 12.9 0.00 0.00 0.00 60 1015.0
20260504010504 12 191 9.7 12.9 0.00 0.00 0.00 59 1014.9
20260504010005 12 196 9.7 12.9 0.00 0.00 0.00 58 1014.9
20260504005504 12 193 9.7 12.9 0.00 0.00 0.00 57 1014.9
20260504005004 13 186 11.3 12.9 0.00 0.00 0.00 59 1014.8
20260504004505 13 205 9.7 12.9 0.00 0.00 0.00 59 1014.8
20260504004004 12 192 9.7 12.9 0.00 0.00 0.00 58 1014.8
20260504003503 12 217 8.0 12.9 0.00 0.00 0.00 55 1014.7
20260504003004 13 219 6.4 11.3 0.00 0.00 0.00 54 1014.7
20260504002505 13 227 4.8 8.0 0.00 0.00 0.00 54 1014.5
20260504002004 13 213 4.8 8.0 0.00 0.00 0.00 52 1014.5
20260504001504 13 246 4.8 8.0 0.00 0.00 0.00 49 1014.5
20260504001004 13 234 4.8 8.0 0.00 0.00 0.00 47 1014.5
20260504000504 13 230 4.8 14.5 0.00 0.00 0.00 47 1014.2
20260504000005 13 239 8.0 14.5 0.00 0.00 0.00 47 1014.0
20260503235504 13 240 4.8 11.3 0.00 0.00 0.00 46 1014.0
20260503235004 13 243 6.4 11.3 0.00 0.00 0.00 46 1013.9
20260503233504 15 239 6.4 12.9 0.00 0.00 0.00 45 1013.8
20260503233004 15 236 8.0 14.5 0.00 0.00 0.00 43 1013.7
20260503232504 15 244 3.2 14.5 0.00 0.00 0.00 42 1013.8
20260503231504 16 258 6.4 12.9 0.00 0.00 0.00 40 1013.8
20260503231005 16 290 4.8 14.5 0.00 0.00 0.00 40 1013.9
20260503230504 16 294 8.0 14.5 0.00 0.00 0.00 38 1013.9
20260503230004 16 283 4.8 12.9 0.00 0.00 0.00 39 1013.9
20260503225504 16 277 6.4 14.5 0.00 0.00 0.00 39 1013.9
20260503223004 16 260 6.4 14.5 0.00 0.00 0.00 39 1013.8
20260503222504 16 302 3.2 14.5 0.00 0.00 0.00 37 1013.8
20260503221504 16 248 4.8 19.3 0.00 0.00 0.00 38 1014.0
20260503221004 16 231 12.9 19.3 0.00 0.00 0.00 36 1014.0
20260503220504 16 245 11.3 16.1 0.00 0.00 0.00 36 1014.0
20260503215504 16 274 11.3 17.7 0.00 0.00 0.00 36 1014.0
20260503215003 16 270 6.4 19.3 0.00 0.00 0.00 37 1014.0
20260503214504 16 309 9.7 19.3 0.00 0.00 0.00 37 1014.0
20260503214004 16 325 9.7 19.3 0.00 0.00 0.00 37 1014.0
20260503213504 16 263 9.7 22.5 0.00 0.00 0.00 37 1014.0
20260503213004 16 298 14.5 22.5 0.00 0.00 0.00 36 1014.1
20260503212004 16 277 9.7 19.3 0.00 0.00 0.00 38 1013.9
20260503211004 16 277 11.3 17.7 0.00 0.00 0.00 37 1014.0
20260503210504 16 244 11.3 25.7 0.00 0.00 0.00 36 1014.0
20260503210006 16 292 9.7 25.7 0.00 0.00 0.00 36 1014.1
20260503205505 16 327 16.1 20.9 0.00 0.00 0.00 40 1014.1
20260503205005 16 331 9.7 19.3 0.00 0.00 0.00 38 1014.1
20260503204504 16 263 9.7 19.3 0.00 0.00 0.00 38 1014.1
20260503204004 16 290 12.9 20.9 0.00 0.00 0.00 36 1014.1
20260503203005 16 269 14.5 22.5 0.00 0.00 0.00 36 1014.1
20260503202003 16 300 16.1 27.4 0.00 0.00 0.00 38 1014.2
20260503201504 16 284 11.3 24.1 0.00 0.00 0.00 36 1014.3
20260503201004 16 271 9.7 30.6 0.00 0.00 0.00 37 1014.4
20260503200504 16 302 16.1 29.0 0.00 0.00 0.00 40 1014.5
20260503194959 16 323 17.7 24.1 0.00 0.00 0.00 38 1014.6
20260503194502 16 267 14.5 30.6 0.00 0.00 0.00 37 1014.6
20260503194004 16 296 19.3 30.6 0.00 0.00 0.00 42 1014.7
20260503193504 16 334 11.3 20.9 0.00 0.00 0.00 40 1014.7
20260503193000 16 294 12.9 27.4 0.00 0.00 0.00 41 1014.9
20260503192502 15 302 14.5 29.0 0.00 0.00 0.00 38 1015.0
20260503192000 16 330 17.7 29.0 0.00 0.00 0.00 38 1015.0
20260503191000 15 305 12.9 24.1 0.00 0.00 0.00 42 1015.0
20260503190003 15 295 16.1 25.7 0.00 0.00 0.00 40 1015.2
20260503185505 15 338 17.7 25.7 0.00 0.00 0.00 41 1015.3
20260503185004 15 300 9.7 25.7 0.00 0.00 0.00 41 1015.4
20260503184505 15 309 12.9 27.4 0.00 0.00 0.00 40 1015.4
20260503184004 15 286 17.7 27.4 0.00 0.00 0.00 39 1015.5
20260503183005 15 290 19.3 29.0 0.00 0.00 0.00 40 1015.6
20260503182504 15 309 14.5 24.1 0.00 0.00 0.00 43 1015.7
20260503182005 15 275 17.7 30.6 0.00 0.00 0.00 40 1015.7
20260503181505 15 302 14.5 27.4 0.00 0.00 0.00 40 1015.7
20260503181004 15 341 14.5 25.7 0.00 0.00 0.00 42 1015.8
20260503180505 15 296 16.1 25.7 0.00 0.00 0.00 43 1015.8
20260503180002 14 317 12.9 24.1 0.00 0.00 0.00 44 1015.7
20260503175502 14 329 11.3 20.9 0.00 0.00 0.00 40 1015.7
20260503175000 14 284 11.3 22.5 0.00 0.00 0.00 41 1015.8
20260503174504 13 317 16.1 27.4 0.00 0.00 0.00 39 1015.9
20260503174004 13 313 16.1 29.0 0.00 0.00 0.00 39 1015.9
20260503173459 13 313 17.7 29.0 0.00 0.00 0.00 43 1015.9
20260503173000 13 308 16.1 30.6 0.00 0.00 0.00 43 1016.0
20260503172459 13 336 19.3 29.0 0.00 0.00 0.00 42 1016.0
20260503172001 13 292 14.5 24.1 0.00 0.00 0.00 42 1016.1
20260503171504 13 330 16.1 30.6 0.00 0.00 0.00 44 1016.1
20260503171000 13 309 20.9 30.6 0.00 0.00 0.00 42 1016.0
20260503170504 13 309 17.7 29.0 0.00 0.00 0.00 43 1016.0
20260503150959 12 296 20.9 35.4 0.00 0.00 0.00 48 1016.1
20260503150500 12 322 22.5 37.0 0.00 0.00 0.00 47 1016.1